{"data":{"norad_id":45144,"intl_designator":"2020-008P","name":"ONEWEB-0036","alt_names":[],"object_type":"PAYLOAD","status":"ACTIVE","operator":null,"country":"UK","launch_date":"2020-02-06","launch_site_code":"TYMSC","launch_vehicle":null,"mission":null,"orbit_class":"UNKNOWN","rcs_meters":null,"size_class":null,"mass_kg":null,"dimensions":null,"purposes":["comms"],"wikipedia_slug":null,"has_3d_model":false,"image_url":null,"decayed_at":null,"tle_current":{"epoch":"2026-05-25T03:10:24.773952Z","epoch_age_seconds":73917,"freshness":"FRESH","line1":"1 45144U 20008P   26145.13223118 -.00000401  00000+0 -11947-2 0  9997","line2":"2 45144  87.8873  40.8646 0002050  81.2334 278.9025 13.09823949305343","mean_motion":13.09823949,"eccentricity":0.000205,"inclination_deg":87.8873,"raan_deg":40.8646,"arg_perigee_deg":81.2334,"mean_anomaly_deg":278.9025,"bstar":-0.0011947,"rev_number":30534,"period_min":109.93843875731,"perigee_km":1222.2816900518,"apogee_km":1225.3985006609,"semimajor_km":7601.9770953563,"source":"CELESTRAK","updated_at":"2026-05-25T13:38:22.335687Z"}}}